Time,TemperatureF,DewpointF,PressureIn,WindDirection,WindDirectionDegrees,WindSpeedMPH,WindSpeedGustMPH,Humidity,HourlyPrecipIn,Conditions,Clouds,dailyrainin,SoftwareType,DateUTC
2013-03-07 00:00:00,50.4,44.5,29.93,NW,309,0.0,1.0,80,0.01,,---,0.01,VWS V14.01,2013-03-07 08:00:00,
2013-03-07 00:05:00,50.2,44.6,29.93,NW,309,0.0,0.0,81,0.01,,---,0.00,VWS V14.01,2013-03-07 08:05:00,
2013-03-07 00:10:00,50.2,44.6,29.93,NW,309,0.0,0.0,81,0.01,,---,0.00,VWS V14.01,2013-03-07 08:10:00,
2013-03-07 00:15:00,50.1,44.8,29.90,NW,309,0.0,0.0,82,0.01,,---,0.00,VWS V14.01,2013-03-07 08:15:00,
2013-03-07 00:20:00,50.1,44.8,29.90,NW,309,0.0,0.0,82,0.01,,---,0.00,VWS V14.01,2013-03-07 08:20:00,
2013-03-07 00:25:00,50.1,45.2,29.90,NW,311,0.0,1.0,83,0.01,,---,0.00,VWS V14.01,2013-03-07 08:25:00,
2013-03-07 00:30:00,49.9,45.0,29.89,NW,311,0.0,1.0,83,0.01,,---,0.00,VWS V14.01,2013-03-07 08:30:00,
2013-03-07 00:35:00,49.8,44.8,29.89,NW,311,0.0,0.0,83,0.01,,---,0.00,VWS V14.01,2013-03-07 08:35:00,
2013-03-07 00:40:00,49.6,44.7,29.89,NW,311,0.0,0.0,83,0.01,,---,0.00,VWS V14.01,2013-03-07 08:40:00,
2013-03-07 00:45:00,49.6,45.3,29.88,NW,311,0.0,0.0,85,0.01,,---,0.00,VWS V14.01,2013-03-07 08:45:00,
2013-03-07 00:50:00,49.5,45.2,29.88,NW,311,0.0,0.0,85,0.01,,---,0.00,VWS V14.01,2013-03-07 08:50:00,
2013-03-07 00:55:00,49.5,45.2,29.88,NW,311,0.0,0.0,85,0.01,,---,0.00,VWS V14.01,2013-03-07 08:55:00,
2013-03-07 01:00:00,49.4,45.1,29.89,NW,311,0.0,0.0,85,0.01,,---,0.00,VWS V14.01,2013-03-07 09:00:00,
2013-03-07 01:05:00,49.2,44.9,29.89,NW,311,0.0,1.0,85,0.00,,---,0.00,VWS V14.01,2013-03-07 09:05:00,
2013-03-07 01:10:00,49.2,45.2,29.89,NW,311,0.0,1.0,86,0.00,,---,0.00,VWS V14.01,2013-03-07 09:10:00,
2013-03-07 01:15:00,49.2,45.2,29.89,NW,311,0.0,1.0,86,0.00,,---,0.00,VWS V14.01,2013-03-07 09:15:00,
2013-03-07 01:20:00,49.2,45.5,29.89,NW,311,0.0,1.0,87,0.00,,---,0.00,VWS V14.01,2013-03-07 09:20:00,
2013-03-07 01:25:00,49.2,45.5,29.89,NW,311,0.0,1.0,87,0.01,,---,0.01,VWS V14.01,2013-03-07 09:25:00,
2013-03-07 01:30:00,49.2,45.5,29.88,NW,311,0.0,1.0,87,0.01,,---,0.01,VWS V14.01,2013-03-07 09:30:00,
2013-03-07 01:35:00,49.2,45.5,29.88,NW,311,0.0,0.0,87,0.01,,---,0.01,VWS V14.01,2013-03-07 09:35:00,
2013-03-07 01:40:00,49.1,45.4,29.88,NW,311,0.0,0.0,87,0.01,,---,0.01,VWS V14.01,2013-03-07 09:40:00,
2013-03-07 01:45:00,48.9,45.2,29.88,NW,311,0.0,0.0,87,0.01,,---,0.01,VWS V14.01,2013-03-07 09:45:00,
2013-03-07 01:50:00,48.8,45.1,29.88,NW,311,0.0,0.0,87,0.01,,---,0.01,VWS V14.01,2013-03-07 09:50:00,
2013-03-07 01:55:00,48.6,45.2,29.88,NW,311,0.0,0.0,88,0.01,,---,0.01,VWS V14.01,2013-03-07 09:55:00,
2013-03-07 02:00:00,48.6,45.2,29.87,NW,311,0.0,1.0,88,0.01,,---,0.01,VWS V14.01,2013-03-07 10:00:00,
2013-03-07 02:05:00,48.6,45.2,29.87,NW,311,0.0,1.0,88,0.01,,---,0.01,VWS V14.01,2013-03-07 10:05:00,
2013-03-07 02:10:00,48.6,45.2,29.87,NW,311,0.0,1.0,88,0.01,,---,0.01,VWS V14.01,2013-03-07 10:10:00,
2013-03-07 02:15:00,48.5,45.1,29.86,NW,311,0.0,1.0,88,0.01,,---,0.01,VWS V14.01,2013-03-07 10:15:00,
2013-03-07 02:20:00,48.5,45.4,29.86,NW,311,0.0,1.0,89,0.01,,---,0.01,VWS V14.01,2013-03-07 10:20:00,
2013-03-07 02:25:00,48.3,45.2,29.86,NW,311,0.0,1.0,89,0.01,,---,0.01,VWS V14.01,2013-03-07 10:25:00,
2013-03-07 02:30:00,48.3,45.2,29.85,NW,309,0.0,1.0,89,0.01,,---,0.01,VWS V14.01,2013-03-07 10:30:00,
2013-03-07 02:35:00,48.3,45.2,29.85,West,278,1.0,3.0,89,0.00,,---,0.01,VWS V14.01,2013-03-07 10:35:00,
2013-03-07 02:40:00,48.3,45.2,29.85,West,277,1.0,3.0,89,0.00,,---,0.01,VWS V14.01,2013-03-07 10:40:00,
2013-03-07 02:45:00,48.3,45.2,29.87,WSW,253,1.0,3.0,89,0.00,,---,0.01,VWS V14.01,2013-03-07 10:45:00,
2013-03-07 02:50:00,48.2,45.1,29.87,WSW,253,0.0,3.0,89,0.00,,---,0.01,VWS V14.01,2013-03-07 10:50:00,
2013-03-07 02:55:00,48.0,44.9,29.87,WSW,253,0.0,3.0,89,0.00,,---,0.01,VWS V14.01,2013-03-07 10:55:00,
2013-03-07 03:00:00,48.0,44.9,29.86,WSW,253,0.0,3.0,89,0.00,,---,0.01,VWS V14.01,2013-03-07 11:00:00,
2013-03-07 03:05:00,48.0,44.9,29.86,WSW,253,0.0,0.0,89,0.00,,---,0.01,VWS V14.01,2013-03-07 11:05:00,
2013-03-07 03:10:00,47.9,44.8,29.86,WSW,253,0.0,0.0,89,0.00,,---,0.01,VWS V14.01,2013-03-07 11:10:00,
2013-03-07 03:15:00,47.9,44.8,29.88,WSW,253,0.0,0.0,89,0.01,,---,0.02,VWS V14.01,2013-03-07 11:15:00,
2013-03-07 03:20:00,48.0,45.2,29.88,WSW,253,0.0,1.0,90,0.01,,---,0.02,VWS V14.01,2013-03-07 11:20:00,
2013-03-07 03:25:00,48.0,45.2,29.88,North,7,1.0,2.0,90,0.01,,---,0.02,VWS V14.01,2013-03-07 11:25:00,
2013-03-07 03:30:00,48.0,45.2,29.88,NE,51,0.0,3.0,90,0.01,,---,0.02,VWS V14.01,2013-03-07 11:30:00,
2013-03-07 03:35:00,48.0,45.2,29.88,NE,51,0.0,0.0,90,0.01,,---,0.02,VWS V14.01,2013-03-07 11:35:00,
2013-03-07 03:40:00,47.9,45.1,29.88,NE,51,0.0,0.0,90,0.01,,---,0.02,VWS V14.01,2013-03-07 11:40:00,
2013-03-07 03:45:00,47.7,44.9,29.88,NE,51,0.0,0.0,90,0.01,,---,0.02,VWS V14.01,2013-03-07 11:45:00,
2013-03-07 03:50:00,47.7,44.9,29.88,NE,51,0.0,0.0,90,0.01,,---,0.02,VWS V14.01,2013-03-07 11:50:00,
2013-03-07 03:55:00,47.7,44.9,29.88,NE,51,0.0,0.0,90,0.01,,---,0.02,VWS V14.01,2013-03-07 11:55:00,
2013-03-07 04:00:00,47.7,45.2,29.88,NE,51,0.0,0.0,91,0.01,,---,0.02,VWS V14.01,2013-03-07 12:00:00,
2013-03-07 04:05:00,47.7,45.2,29.88,NE,51,0.0,0.0,91,0.01,,---,0.02,VWS V14.01,2013-03-07 12:05:00,
2013-03-07 04:10:00,47.9,45.4,29.88,NE,51,0.0,0.0,91,0.01,,---,0.02,VWS V14.01,2013-03-07 12:10:00,
2013-03-07 04:15:00,47.9,45.4,29.88,NE,51,0.0,0.0,91,0.01,,---,0.02,VWS V14.01,2013-03-07 12:15:00,
2013-03-07 04:20:00,47.9,45.4,29.88,NE,51,0.0,0.0,91,0.01,,---,0.02,VWS V14.01,2013-03-07 12:20:00,
2013-03-07 04:25:00,47.9,45.4,29.88,NE,51,0.0,0.0,91,0.01,,---,0.02,VWS V14.01,2013-03-07 12:25:00,
2013-03-07 04:30:00,47.9,45.4,29.89,NE,51,0.0,0.0,91,0.00,,---,0.02,VWS V14.01,2013-03-07 12:30:00,
2013-03-07 04:35:00,48.0,45.5,29.89,WNW,302,1.0,2.0,91,0.01,,---,0.03,VWS V14.01,2013-03-07 12:35:00,
2013-03-07 04:40:00,48.0,45.5,29.89,WNW,302,0.0,2.0,91,0.02,,---,0.04,VWS V14.01,2013-03-07 12:40:00,
2013-03-07 04:45:00,48.0,45.5,29.89,WNW,302,0.0,2.0,91,0.03,,---,0.05,VWS V14.01,2013-03-07 12:45:00,
2013-03-07 04:50:00,48.0,45.5,29.89,WNW,302,0.0,2.0,91,0.03,,---,0.05,VWS V14.01,2013-03-07 12:50:00,
2013-03-07 04:55:00,48.0,45.5,29.89,WNW,302,0.0,2.0,91,0.03,,---,0.05,VWS V14.01,2013-03-07 12:55:00,
2013-03-07 05:00:00,48.0,45.5,29.89,WNW,302,0.0,0.0,91,0.03,,---,0.05,VWS V14.01,2013-03-07 13:00:00,
2013-03-07 05:05:00,48.0,45.5,29.89,WNW,302,0.0,0.0,91,0.03,,---,0.05,VWS V14.01,2013-03-07 13:05:00,
2013-03-07 05:10:00,48.0,45.5,29.89,WNW,302,0.0,0.0,91,0.03,,---,0.05,VWS V14.01,2013-03-07 13:10:00,
2013-03-07 05:15:00,48.0,45.5,29.89,WNW,302,0.0,0.0,91,0.03,,---,0.05,VWS V14.01,2013-03-07 13:15:00,
2013-03-07 05:20:00,48.0,45.5,29.89,WNW,302,0.0,0.0,91,0.03,,---,0.05,VWS V14.01,2013-03-07 13:20:00,
2013-03-07 05:25:00,48.0,45.5,29.89,WNW,302,0.0,0.0,91,0.03,,---,0.05,VWS V14.01,2013-03-07 13:25:00,
2013-03-07 05:30:00,48.0,45.5,29.90,WNW,302,0.0,0.0,91,0.03,,---,0.05,VWS V14.01,2013-03-07 13:30:00,
2013-03-07 05:35:00,48.0,45.5,29.90,WNW,302,0.0,0.0,91,0.03,,---,0.05,VWS V14.01,2013-03-07 13:35:00,
2013-03-07 05:40:00,48.0,45.5,29.90,WNW,302,0.0,1.0,91,0.03,,---,0.05,VWS V14.01,2013-03-07 13:40:00,
2013-03-07 05:45:00,48.0,45.5,29.89,WNW,302,0.0,1.0,91,0.03,,---,0.05,VWS V14.01,2013-03-07 13:45:00,
2013-03-07 05:50:00,48.0,45.5,29.89,WNW,302,1.0,1.0,91,0.03,,---,0.05,VWS V14.01,2013-03-07 13:50:00,
2013-03-07 05:56:00,48.0,45.8,29.89,NW,308,0.0,1.0,92,0.03,,---,0.05,VWS V14.01,2013-03-07 13:56:00,
2013-03-07 06:01:00,48.2,46.0,29.89,North,0,0.0,0.0,92,0.00,,---,0.05,VWS V14.01,2013-03-07 14:01:00,
2013-03-07 06:06:00,48.0,45.8,29.89,North,0,0.0,0.0,92,0.00,,---,0.05,VWS V14.01,2013-03-07 14:06:00,
2013-03-07 06:11:00,48.0,45.8,29.89,North,0,0.0,0.0,92,0.00,,---,0.05,VWS V14.01,2013-03-07 14:11:00,
2013-03-07 06:16:00,48.0,45.8,29.91,North,0,0.0,0.0,92,0.00,,---,0.05,VWS V14.01,2013-03-07 14:16:00,
2013-03-07 06:21:00,48.0,45.5,29.91,North,0,0.0,0.0,91,0.00,,---,0.05,VWS V14.01,2013-03-07 14:21:00,
2013-03-07 06:26:00,47.9,45.4,29.91,North,0,0.0,0.0,91,0.00,,---,0.05,VWS V14.01,2013-03-07 14:26:00,
2013-03-07 06:31:00,47.7,45.5,29.91,North,0,0.0,0.0,92,0.00,,---,0.05,VWS V14.01,2013-03-07 14:31:00,
2013-03-07 06:36:00,47.7,45.5,29.91,ESE,109,0.0,1.0,92,0.00,,---,0.05,VWS V14.01,2013-03-07 14:36:00,
2013-03-07 06:40:00,47.7,45.5,29.91,ESE,110,0.0,2.0,92,0.00,,---,0.05,VWS V14.01,2013-03-07 14:40:00,
2013-03-07 06:45:00,47.7,45.5,29.92,ESE,110,0.0,2.0,92,0.00,,---,0.05,VWS V14.01,2013-03-07 14:45:00,
2013-03-07 06:51:00,47.9,45.7,29.92,ESE,110,0.0,2.0,92,0.00,,---,0.05,VWS V14.01,2013-03-07 14:51:00,
2013-03-07 06:56:00,47.9,45.7,29.92,ESE,110,0.0,2.0,92,0.00,,---,0.05,VWS V14.01,2013-03-07 14:56:00,
2013-03-07 07:01:00,48.0,45.8,29.92,ESE,110,0.0,0.0,92,0.00,,---,0.05,VWS V14.01,2013-03-07 15:01:00,
2013-03-07 07:06:00,48.3,46.1,29.92,ESE,110,0.0,0.0,92,0.00,,---,0.05,VWS V14.01,2013-03-07 15:06:00,
2013-03-07 07:11:00,48.6,46.4,29.92,ESE,110,0.0,0.0,92,0.00,,---,0.05,VWS V14.01,2013-03-07 15:11:00,
2013-03-07 07:16:00,48.8,46.9,29.93,ESE,110,0.0,0.0,93,0.00,,---,0.05,VWS V14.01,2013-03-07 15:16:00,
2013-03-07 07:21:00,49.1,47.2,29.93,ESE,110,0.0,0.0,93,0.00,,---,0.05,VWS V14.01,2013-03-07 15:21:00,
2013-03-07 07:26:00,49.4,47.5,29.93,ESE,110,0.0,0.0,93,0.00,,---,0.05,VWS V14.01,2013-03-07 15:26:00,
2013-03-07 07:31:00,49.5,47.3,29.93,ESE,110,0.0,0.0,92,0.00,,---,0.05,VWS V14.01,2013-03-07 15:31:00,
2013-03-07 07:36:00,49.6,47.7,29.93,ESE,110,0.0,0.0,93,0.00,,---,0.05,VWS V14.01,2013-03-07 15:36:00,
2013-03-07 07:41:00,49.9,48.0,29.93,ESE,110,0.0,0.0,93,0.01,,---,0.06,VWS V14.01,2013-03-07 15:41:00,
2013-03-07 07:46:00,50.2,48.3,29.93,ESE,110,0.0,0.0,93,0.01,,---,0.06,VWS V14.01,2013-03-07 15:46:00,
2013-03-07 07:51:00,50.2,48.0,29.93,ESE,110,0.0,0.0,92,0.01,,---,0.06,VWS V14.01,2013-03-07 15:51:00,
2013-03-07 07:56:00,50.2,48.0,29.93,ESE,110,0.0,0.0,92,0.01,,---,0.06,VWS V14.01,2013-03-07 15:56:00,
2013-03-07 08:01:00,50.2,48.0,29.93,ESE,110,0.0,0.0,92,0.01,,---,0.06,VWS V14.01,2013-03-07 16:01:00,
2013-03-07 08:06:00,50.2,48.0,29.93,ESE,110,0.0,0.0,92,0.01,,---,0.06,VWS V14.01,2013-03-07 16:06:00,
2013-03-07 08:11:00,50.2,48.0,29.93,ESE,110,0.0,0.0,92,0.01,,---,0.06,VWS V14.01,2013-03-07 16:11:00,
2013-03-07 08:16:00,50.2,48.0,29.93,ESE,110,0.0,0.0,92,0.01,,---,0.06,VWS V14.01,2013-03-07 16:16:00,
2013-03-07 08:21:00,50.2,47.7,29.93,ESE,110,0.0,0.0,91,0.01,,---,0.06,VWS V14.01,2013-03-07 16:21:00,
2013-03-07 08:26:00,50.4,47.9,29.93,ESE,110,0.0,0.0,91,0.01,,---,0.06,VWS V14.01,2013-03-07 16:26:00,
2013-03-07 08:31:00,50.5,48.0,29.93,ESE,110,0.0,0.0,91,0.01,,---,0.06,VWS V14.01,2013-03-07 16:31:00,
2013-03-07 08:36:00,50.5,47.7,29.93,ESE,110,0.0,0.0,90,0.01,,---,0.06,VWS V14.01,2013-03-07 16:36:00,
2013-03-07 08:41:00,50.7,47.9,29.93,ESE,110,0.0,0.0,90,0.01,,---,0.06,VWS V14.01,2013-03-07 16:41:00,
2013-03-07 08:46:00,51.0,48.2,29.92,ESE,110,0.0,0.0,90,0.01,,---,0.06,VWS V14.01,2013-03-07 16:46:00,
2013-03-07 08:51:00,51.0,47.9,29.92,ESE,110,0.0,0.0,89,0.01,,---,0.06,VWS V14.01,2013-03-07 16:51:00,
2013-03-07 08:56:00,51.0,47.9,29.92,ESE,110,0.0,0.0,89,0.01,,---,0.06,VWS V14.01,2013-03-07 16:56:00,
2013-03-07 09:01:00,51.3,47.9,29.92,ESE,123,0.0,0.0,88,0.00,,---,0.06,VWS V14.01,2013-03-07 17:01:00,
2013-03-07 09:06:00,51.3,47.3,29.92,ESE,123,0.0,0.0,86,0.00,,---,0.06,VWS V14.01,2013-03-07 17:06:00,
2013-03-07 09:11:00,51.1,46.8,29.92,ESE,123,0.0,0.0,85,0.00,,---,0.06,VWS V14.01,2013-03-07 17:11:00,
2013-03-07 09:16:00,51.0,46.7,29.92,ESE,123,0.0,0.0,85,0.00,,---,0.06,VWS V14.01,2013-03-07 17:16:00,
2013-03-07 09:21:00,51.1,46.4,29.92,ESE,123,0.0,0.0,84,0.00,,---,0.06,VWS V14.01,2013-03-07 17:21:00,
2013-03-07 09:26:00,51.4,46.7,29.92,ESE,123,0.0,0.0,84,0.00,,---,0.06,VWS V14.01,2013-03-07 17:26:00,
2013-03-07 09:31:00,51.4,46.7,29.92,ESE,123,0.0,0.0,84,0.00,,---,0.06,VWS V14.01,2013-03-07 17:31:00,
2013-03-07 09:36:00,51.7,46.4,29.92,ESE,123,0.0,1.0,82,0.00,,---,0.06,VWS V14.01,2013-03-07 17:36:00,
2013-03-07 09:41:00,51.9,46.3,29.92,ESE,123,0.0,1.0,81,0.00,,---,0.06,VWS V14.01,2013-03-07 17:41:00,
2013-03-07 09:46:00,52.2,46.5,29.91,ESE,123,0.0,1.0,81,0.00,,---,0.06,VWS V14.01,2013-03-07 17:46:00,
2013-03-07 09:51:00,52.6,46.3,29.91,SE,126,1.0,1.0,79,0.00,,---,0.06,VWS V14.01,2013-03-07 17:51:00,
2013-03-07 09:56:00,53.1,46.8,29.91,SE,127,0.0,2.0,79,0.00,,---,0.06,VWS V14.01,2013-03-07 17:56:00,
2013-03-07 10:01:00,53.3,46.3,29.90,ENE,66,1.0,2.0,77,0.00,,---,0.06,VWS V14.01,2013-03-07 18:01:00,
2013-03-07 10:06:00,53.3,45.2,29.90,ENE,66,0.0,2.0,74,0.00,,---,0.06,VWS V14.01,2013-03-07 18:06:00,
2013-03-07 10:11:00,53.3,45.2,29.90,ENE,66,0.0,2.0,74,0.00,,---,0.06,VWS V14.01,2013-03-07 18:11:00,
2013-03-07 11:30:00,52.2,46.2,29.92,West,270,0.0,3.0,80,0.01,,---,0.07,VWS V14.01,2013-03-07 19:30:00,
2013-03-07 12:15:00,52.2,46.2,29.92,West,270,0.0,3.0,80,0.01,,---,0.07,VWS V14.01,2013-03-07 20:15:00,
2013-03-07 12:20:00,51.7,46.7,29.92,NW,311,0.0,1.0,83,0.02,,---,0.08,VWS V14.01,2013-03-07 20:20:00,
2013-03-07 12:25:00,51.6,46.6,29.92,NW,311,0.0,1.0,83,0.04,,---,0.10,VWS V14.01,2013-03-07 20:25:00,
2013-03-07 12:30:00,51.4,46.7,29.92,NW,311,0.0,0.0,84,0.04,,---,0.11,VWS V14.01,2013-03-07 20:30:00,
2013-03-07 12:35:00,51.3,46.6,29.92,WNW,295,1.0,2.0,84,0.04,,---,0.11,VWS V14.01,2013-03-07 20:35:00,
2013-03-07 12:40:00,51.0,46.3,29.92,WNW,295,0.0,2.0,84,0.05,,---,0.12,VWS V14.01,2013-03-07 20:40:00,
2013-03-07 12:45:00,50.8,46.5,29.91,WNW,295,0.0,2.0,85,0.05,,---,0.12,VWS V14.01,2013-03-07 20:45:00,
2013-03-07 12:50:00,50.8,46.5,29.91,WNW,295,0.0,2.0,85,0.06,,---,0.13,VWS V14.01,2013-03-07 20:50:00,
2013-03-07 12:55:00,50.7,46.0,29.91,WNW,295,0.0,2.0,84,0.06,,---,0.13,VWS V14.01,2013-03-07 20:55:00,
2013-03-07 13:00:00,50.5,45.8,29.90,WNW,295,0.0,0.0,84,0.02,,---,0.13,VWS V14.01,2013-03-07 21:00:00,
2013-03-07 13:05:00,50.5,46.2,29.90,WNW,295,0.0,1.0,85,0.02,,---,0.13,VWS V14.01,2013-03-07 21:05:00,
2013-03-07 13:10:00,50.7,46.4,29.90,WNW,295,0.0,1.0,85,0.02,,---,0.13,VWS V14.01,2013-03-07 21:10:00,
2013-03-07 13:15:00,50.8,46.2,29.88,NW,312,0.0,1.0,84,0.02,,---,0.13,VWS V14.01,2013-03-07 21:15:00,
2013-03-07 13:20:00,50.7,46.0,29.88,NW,312,0.0,1.0,84,0.02,,---,0.13,VWS V14.01,2013-03-07 21:20:00,
2013-03-07 13:25:00,51.1,46.4,29.88,NW,313,0.0,2.0,84,0.03,,---,0.14,VWS V14.01,2013-03-07 21:25:00,
2013-03-07 13:30:00,51.0,46.0,29.88,NW,313,0.0,0.0,83,0.03,,---,0.14,VWS V14.01,2013-03-07 21:30:00,
2013-03-07 13:35:00,51.3,46.6,29.88,NW,315,0.0,1.0,84,0.03,,---,0.14,VWS V14.01,2013-03-07 21:35:00,
2013-03-07 13:40:00,51.3,46.3,29.88,NW,315,0.0,1.0,83,0.03,,---,0.14,VWS V14.01,2013-03-07 21:40:00,
2013-03-07 13:45:00,51.4,46.4,29.88,NW,316,0.0,1.0,83,0.03,,---,0.14,VWS V14.01,2013-03-07 21:45:00,
2013-03-07 13:50:00,51.6,46.6,29.88,NW,316,0.0,1.0,83,0.03,,---,0.14,VWS V14.01,2013-03-07 21:50:00,
2013-03-07 13:55:00,51.7,46.7,29.88,NW,316,0.0,1.0,83,0.03,,---,0.14,VWS V14.01,2013-03-07 21:55:00,
2013-03-07 14:00:00,51.7,46.7,29.87,NW,316,0.0,0.0,83,0.01,,---,0.14,VWS V14.01,2013-03-07 22:00:00,
2013-03-07 14:06:00,51.9,46.9,29.87,NW,319,0.0,1.0,83,0.01,,---,0.14,VWS V14.01,2013-03-07 22:06:00,
2013-03-07 14:11:00,52.0,47.0,29.87,SSE,158,0.0,2.0,83,0.01,,---,0.14,VWS V14.01,2013-03-07 22:11:00,
2013-03-07 14:16:00,52.2,47.5,29.87,SSE,158,1.0,2.0,84,0.01,,---,0.14,VWS V14.01,2013-03-07 22:16:00,
2013-03-07 14:21:00,52.0,47.0,29.87,SE,131,0.0,2.0,83,0.01,,---,0.14,VWS V14.01,2013-03-07 22:21:00,
2013-03-07 14:26:00,52.0,47.3,29.87,SE,131,0.0,2.0,84,0.01,,---,0.14,VWS V14.01,2013-03-07 22:26:00,
2013-03-07 14:31:00,52.0,47.3,29.87,SE,130,0.0,0.0,84,0.00,,---,0.14,VWS V14.01,2013-03-07 22:31:00,
2013-03-07 14:36:00,52.0,47.3,29.87,ENE,62,1.0,5.0,84,0.01,,---,0.15,VWS V14.01,2013-03-07 22:36:00,
2013-03-07 14:41:00,51.7,47.0,29.87,ENE,61,2.0,5.0,84,0.01,,---,0.15,VWS V14.01,2013-03-07 22:41:00,
2013-03-07 14:46:00,51.7,47.3,29.87,ENE,64,0.0,5.0,85,0.01,,---,0.15,VWS V14.01,2013-03-07 22:46:00,
2013-03-07 14:51:00,51.7,47.3,29.87,ENE,64,0.0,5.0,85,0.01,,---,0.15,VWS V14.01,2013-03-07 22:51:00,
2013-03-07 14:56:00,51.9,47.5,29.87,ENE,64,0.0,5.0,85,0.01,,---,0.15,VWS V14.01,2013-03-07 22:56:00,
2013-03-07 15:01:00,52.0,47.6,29.86,ENE,64,0.0,0.0,85,0.01,,---,0.15,VWS V14.01,2013-03-07 23:01:00,
2013-03-07 15:06:00,52.0,47.6,29.86,ENE,68,0.0,1.0,85,0.01,,---,0.15,VWS V14.01,2013-03-07 23:06:00,
2013-03-07 15:11:00,52.2,47.8,29.86,ENE,76,1.0,1.0,85,0.01,,---,0.15,VWS V14.01,2013-03-07 23:11:00,
2013-03-07 15:16:00,52.0,47.3,29.86,SE,134,0.0,3.0,84,0.01,,---,0.15,VWS V14.01,2013-03-07 23:16:00,
2013-03-07 15:21:00,51.9,47.2,29.86,SE,140,0.0,3.0,84,0.02,,---,0.16,VWS V14.01,2013-03-07 23:21:00,
2013-03-07 15:26:00,51.7,47.0,29.86,SE,140,0.0,3.0,84,0.02,,---,0.16,VWS V14.01,2013-03-07 23:26:00,
2013-03-07 15:31:00,51.9,47.5,29.86,SE,140,0.0,0.0,85,0.02,,---,0.16,VWS V14.01,2013-03-07 23:31:00,
2013-03-07 15:36:00,51.9,47.2,29.86,SE,141,0.0,2.0,84,0.02,,---,0.16,VWS V14.01,2013-03-07 23:36:00,
2013-03-07 15:41:00,51.9,47.2,29.86,SE,126,1.0,2.0,84,0.02,,---,0.16,VWS V14.01,2013-03-07 23:41:00,
2013-03-07 15:46:00,51.9,47.2,29.86,SE,126,1.0,2.0,84,0.02,,---,0.16,VWS V14.01,2013-03-07 23:46:00,
2013-03-07 15:51:00,51.7,46.7,29.86,SE,126,0.0,2.0,83,0.02,,---,0.16,VWS V14.01,2013-03-07 23:51:00,
2013-03-07 15:56:00,51.7,46.7,29.86,SE,126,0.0,2.0,83,0.02,,---,0.16,VWS V14.01,2013-03-07 23:56:00,
2013-03-07 16:01:00,51.7,46.7,29.86,SE,126,0.0,0.0,83,0.01,,---,0.16,VWS V14.01,2013-03-08 00:01:00,
2013-03-07 16:06:00,51.7,46.7,29.86,SE,126,0.0,0.0,83,0.01,,---,0.16,VWS V14.01,2013-03-08 00:06:00,
2013-03-07 16:11:00,51.6,46.6,29.86,SE,126,0.0,2.0,83,0.01,,---,0.16,VWS V14.01,2013-03-08 00:11:00,
2013-03-07 16:16:00,51.6,46.6,29.85,SE,126,0.0,2.0,83,0.01,,---,0.16,VWS V14.01,2013-03-08 00:16:00,
2013-03-07 16:21:00,51.4,46.4,29.85,SE,126,0.0,2.0,83,0.01,,---,0.16,VWS V14.01,2013-03-08 00:21:00,
2013-03-07 16:26:00,51.3,46.3,29.85,SE,140,1.0,2.0,83,0.01,,---,0.16,VWS V14.01,2013-03-08 00:26:00,
2013-03-07 16:31:00,51.1,46.1,29.86,SE,140,0.0,0.0,83,0.00,,---,0.16,VWS V14.01,2013-03-08 00:31:00,
2013-03-07 16:36:00,51.0,46.0,29.86,SE,140,0.0,1.0,83,0.00,,---,0.16,VWS V14.01,2013-03-08 00:36:00,
2013-03-07 16:41:00,51.0,46.0,29.86,South,186,0.0,2.0,83,0.00,,---,0.16,VWS V14.01,2013-03-08 00:41:00,
2013-03-07 16:46:00,50.8,45.8,29.87,SSW,205,2.0,2.0,83,0.00,,---,0.16,VWS V14.01,2013-03-08 00:46:00,
2013-03-07 16:51:00,50.8,46.2,29.87,West,275,0.0,3.0,84,0.01,,---,0.17,VWS V14.01,2013-03-08 00:51:00,
2013-03-07 16:56:00,50.8,46.5,29.87,West,275,0.0,3.0,85,0.02,,---,0.18,VWS V14.01,2013-03-08 00:56:00,
2013-03-07 17:01:00,50.5,45.8,29.87,West,271,0.0,0.0,84,0.02,,---,0.18,VWS V14.01,2013-03-08 01:01:00,
2013-03-07 17:06:00,50.4,45.8,29.87,West,271,0.0,1.0,84,0.02,,---,0.18,VWS V14.01,2013-03-08 01:06:00,
2013-03-07 17:11:00,50.1,45.8,29.87,West,271,0.0,1.0,85,0.03,,---,0.19,VWS V14.01,2013-03-08 01:11:00,
2013-03-07 17:16:00,49.9,45.6,29.87,South,181,0.0,1.0,85,0.06,,---,0.22,VWS V14.01,2013-03-08 01:16:00,
2013-03-07 17:21:00,49.6,45.3,29.87,South,181,0.0,1.0,85,0.08,,---,0.24,VWS V14.01,2013-03-08 01:21:00,
2013-03-07 17:26:00,49.5,45.5,29.87,South,181,0.0,1.0,86,0.08,,---,0.24,VWS V14.01,2013-03-08 01:26:00,
2013-03-07 17:31:00,49.4,45.4,29.88,South,181,0.0,0.0,86,0.08,,---,0.24,VWS V14.01,2013-03-08 01:31:00,
2013-03-07 17:36:00,49.2,45.5,29.88,South,181,0.0,0.0,87,0.08,,---,0.24,VWS V14.01,2013-03-08 01:36:00,
2013-03-07 17:41:00,49.2,45.5,29.88,South,181,0.0,0.0,87,0.08,,---,0.24,VWS V14.01,2013-03-08 01:41:00,
2013-03-07 17:46:00,49.2,45.5,29.89,South,181,0.0,0.0,87,0.08,,---,0.24,VWS V14.01,2013-03-08 01:46:00,
2013-03-07 17:51:00,49.1,45.4,29.89,South,181,0.0,0.0,87,0.08,,---,0.24,VWS V14.01,2013-03-08 01:51:00,
2013-03-07 17:56:00,49.1,45.4,29.89,South,181,0.0,0.0,87,0.08,,---,0.24,VWS V14.01,2013-03-08 01:56:00,
2013-03-07 18:01:00,48.9,45.2,29.88,South,181,0.0,0.0,87,0.06,,---,0.24,VWS V14.01,2013-03-08 02:01:00,
2013-03-07 18:06:00,48.9,45.5,29.88,South,181,0.0,0.0,88,0.06,,---,0.24,VWS V14.01,2013-03-08 02:06:00,
2013-03-07 18:11:00,48.9,45.5,29.88,South,181,0.0,1.0,88,0.06,,---,0.24,VWS V14.01,2013-03-08 02:11:00,
2013-03-07 18:16:00,48.9,45.5,29.88,South,181,0.0,1.0,88,0.06,,---,0.24,VWS V14.01,2013-03-08 02:16:00,
2013-03-07 18:21:00,48.9,45.5,29.88,South,181,0.0,1.0,88,0.06,,---,0.24,VWS V14.01,2013-03-08 02:21:00,
2013-03-07 18:26:00,48.9,45.5,29.88,South,181,0.0,1.0,88,0.06,,---,0.24,VWS V14.01,2013-03-08 02:26:00,
2013-03-07 18:31:00,48.8,45.4,29.88,South,181,0.0,0.0,88,0.00,,---,0.24,VWS V14.01,2013-03-08 02:31:00,
2013-03-07 18:36:00,48.8,45.4,29.88,South,181,0.0,0.0,88,0.00,,---,0.24,VWS V14.01,2013-03-08 02:36:00,
2013-03-07 18:41:00,48.8,45.7,29.88,ENE,64,1.0,3.0,89,0.00,,---,0.24,VWS V14.01,2013-03-08 02:41:00,
2013-03-07 18:46:00,48.6,45.5,29.88,ENE,73,1.0,3.0,89,0.00,,---,0.24,VWS V14.01,2013-03-08 02:46:00,
2013-03-07 18:51:00,48.5,45.4,29.88,ENE,73,0.0,3.0,89,0.00,,---,0.24,VWS V14.01,2013-03-08 02:51:00,
2013-03-07 18:56:00,48.5,45.4,29.88,ENE,73,0.0,3.0,89,0.00,,---,0.24,VWS V14.01,2013-03-08 02:56:00,
2013-03-07 19:01:00,48.5,45.4,29.88,East,86,0.0,1.0,89,0.00,,---,0.24,VWS V14.01,2013-03-08 03:01:00,
2013-03-07 19:06:00,48.3,45.2,29.88,SSE,161,0.0,3.0,89,0.00,,---,0.24,VWS V14.01,2013-03-08 03:06:00,
2013-03-07 19:11:00,48.3,45.2,29.88,SSE,164,0.0,3.0,89,0.01,,---,0.25,VWS V14.01,2013-03-08 03:11:00,
2013-03-07 19:16:00,48.2,45.1,29.86,SSE,165,0.0,3.0,89,0.01,,---,0.25,VWS V14.01,2013-03-08 03:16:00,
2013-03-07 19:21:00,48.2,45.1,29.86,SSE,165,0.0,3.0,89,0.02,,---,0.26,VWS V14.01,2013-03-08 03:21:00,
2013-03-07 19:26:00,48.0,44.9,29.86,SSE,165,0.0,3.0,89,0.02,,---,0.26,VWS V14.01,2013-03-08 03:26:00,
2013-03-07 19:31:00,48.0,44.9,29.86,SSE,165,0.0,0.0,89,0.02,,---,0.26,VWS V14.01,2013-03-08 03:31:00,
2013-03-07 19:35:00,48.0,44.9,29.86,SSE,165,0.0,0.0,89,0.02,,---,0.26,VWS V14.01,2013-03-08 03:35:00,
2013-03-07 19:41:00,48.0,44.9,29.86,SSE,165,0.0,1.0,89,0.02,,---,0.26,VWS V14.01,2013-03-08 03:41:00,
2013-03-07 19:46:00,48.0,45.2,29.86,SSE,165,0.0,1.0,90,0.02,,---,0.26,VWS V14.01,2013-03-08 03:46:00,
2013-03-07 19:51:00,48.2,45.4,29.86,SSE,165,0.0,1.0,90,0.03,,---,0.27,VWS V14.01,2013-03-08 03:51:00,
2013-03-07 19:55:00,48.3,45.5,29.86,SSE,165,0.0,1.0,90,0.03,,---,0.27,VWS V14.01,2013-03-08 03:55:00,
2013-03-07 20:00:00,48.3,45.5,29.86,SSE,165,0.0,0.0,90,0.03,,---,0.27,VWS V14.01,2013-03-08 04:00:00,
2013-03-07 20:06:00,48.3,45.5,29.86,SSE,165,0.0,1.0,90,0.03,,---,0.27,VWS V14.01,2013-03-08 04:06:00,
2013-03-07 20:11:00,48.2,45.4,29.86,SSE,165,0.0,1.0,90,0.03,,---,0.27,VWS V14.01,2013-03-08 04:11:00,
2013-03-07 20:16:00,48.0,45.2,29.86,SSE,165,0.0,1.0,90,0.03,,---,0.27,VWS V14.01,2013-03-08 04:16:00,
2013-03-07 20:21:00,47.9,45.1,29.86,SSE,165,0.0,1.0,90,0.03,,---,0.27,VWS V14.01,2013-03-08 04:21:00,
2013-03-07 20:26:00,47.9,45.1,29.86,SSE,165,0.0,1.0,90,0.03,,---,0.27,VWS V14.01,2013-03-08 04:26:00,
2013-03-07 20:31:00,47.7,44.9,29.85,SSE,165,0.0,0.0,90,0.01,,---,0.27,VWS V14.01,2013-03-08 04:31:00,
2013-03-07 20:36:00,47.7,44.9,29.85,SSE,165,0.0,1.0,90,0.01,,---,0.27,VWS V14.01,2013-03-08 04:36:00,
2013-03-07 20:41:00,47.6,44.8,29.85,SSE,165,0.0,1.0,90,0.01,,---,0.27,VWS V14.01,2013-03-08 04:41:00,
2013-03-07 20:46:00,47.6,44.8,29.85,SSE,165,0.0,1.0,90,0.01,,---,0.27,VWS V14.01,2013-03-08 04:46:00,
2013-03-07 20:51:00,47.4,44.6,29.85,SSE,165,0.0,1.0,90,0.01,,---,0.27,VWS V14.01,2013-03-08 04:51:00,
2013-03-07 20:56:00,47.3,44.5,29.85,SSE,165,0.0,1.0,90,0.01,,---,0.27,VWS V14.01,2013-03-08 04:56:00,
2013-03-07 21:00:00,47.1,44.3,29.85,SSE,165,0.0,1.0,90,0.01,,---,0.27,VWS V14.01,2013-03-08 05:00:00,
2013-03-07 21:01:00,47.1,44.3,29.85,SSE,165,0.0,0.0,90,0.00,,---,0.27,VWS V14.01,2013-03-08 05:01:00,
2013-03-07 21:06:00,47.0,44.2,29.85,SSE,165,0.0,0.0,90,0.00,,---,0.27,VWS V14.01,2013-03-08 05:06:00,
2013-03-07 21:11:00,46.8,44.0,29.85,SSE,165,0.0,0.0,90,0.00,,---,0.27,VWS V14.01,2013-03-08 05:11:00,
2013-03-07 21:16:00,46.5,43.7,29.84,SSE,165,0.0,0.0,90,0.00,,---,0.27,VWS V14.01,2013-03-08 05:16:00,
2013-03-07 21:21:00,46.2,43.4,29.84,SSE,165,0.0,1.0,90,0.00,,---,0.27,VWS V14.01,2013-03-08 05:21:00,
2013-03-07 21:26:00,46.0,43.2,29.84,SSE,165,0.0,1.0,90,0.00,,---,0.27,VWS V14.01,2013-03-08 05:26:00,
2013-03-07 21:31:00,45.7,42.9,29.85,SSE,165,0.0,0.0,90,0.00,,---,0.27,VWS V14.01,2013-03-08 05:31:00,
2013-03-07 21:36:00,45.4,42.6,29.85,SSE,165,0.0,1.0,90,0.00,,---,0.27,VWS V14.01,2013-03-08 05:36:00,
2013-03-07 21:41:00,45.2,42.5,29.85,SSE,165,0.0,1.0,90,0.00,,---,0.27,VWS V14.01,2013-03-08 05:41:00,
2013-03-07 21:46:00,45.1,42.3,29.85,SSE,165,0.0,1.0,90,0.00,,---,0.27,VWS V14.01,2013-03-08 05:46:00,
2013-03-07 21:51:00,44.8,42.0,29.85,SSE,165,0.0,1.0,90,0.00,,---,0.27,VWS V14.01,2013-03-08 05:51:00,
2013-03-07 21:56:00,44.6,41.8,29.85,SSE,165,0.0,1.0,90,0.00,,---,0.27,VWS V14.01,2013-03-08 05:56:00,
2013-03-07 22:01:00,44.5,42.0,29.85,SSE,165,0.0,0.0,91,0.00,,---,0.27,VWS V14.01,2013-03-08 06:01:00,
2013-03-07 22:06:00,44.5,42.0,29.85,SSE,165,0.0,1.0,91,0.00,,---,0.27,VWS V14.01,2013-03-08 06:06:00,
2013-03-07 22:11:00,44.3,41.8,29.85,SSE,165,0.0,1.0,91,0.00,,---,0.27,VWS V14.01,2013-03-08 06:11:00,
2013-03-07 22:16:00,44.2,41.7,29.85,SSE,165,0.0,1.0,91,0.00,,---,0.27,VWS V14.01,2013-03-08 06:16:00,
2013-03-07 22:21:00,44.2,41.7,29.85,SSE,165,0.0,1.0,91,0.00,,---,0.27,VWS V14.01,2013-03-08 06:21:00,
2013-03-07 22:26:00,44.2,41.7,29.85,SSE,165,1.0,2.0,91,0.00,,---,0.27,VWS V14.01,2013-03-08 06:26:00,
2013-03-07 22:31:00,44.2,41.7,29.84,South,185,0.0,1.0,91,0.00,,---,0.27,VWS V14.01,2013-03-08 06:31:00,
2013-03-07 22:36:00,44.2,41.7,29.84,South,171,0.0,2.0,91,0.00,,---,0.27,VWS V14.01,2013-03-08 06:36:00,
2013-03-07 22:41:00,44.2,41.7,29.84,South,171,0.0,2.0,91,0.00,,---,0.27,VWS V14.01,2013-03-08 06:41:00,
2013-03-07 22:46:00,44.2,41.7,29.84,South,171,0.0,2.0,91,0.00,,---,0.27,VWS V14.01,2013-03-08 06:46:00,
2013-03-07 22:51:00,44.2,41.7,29.84,South,171,0.0,2.0,91,0.00,,---,0.27,VWS V14.01,2013-03-08 06:51:00,
2013-03-07 22:56:00,44.1,41.7,29.84,South,171,0.0,2.0,91,0.00,,---,0.27,VWS V14.01,2013-03-08 06:56:00,
2013-03-07 23:01:00,43.9,41.5,29.83,South,171,0.0,0.0,91,0.00,,---,0.27,VWS V14.01,2013-03-08 07:01:00,
2013-03-07 23:06:00,43.9,41.5,29.83,South,171,0.0,0.0,91,0.00,,---,0.27,VWS V14.01,2013-03-08 07:06:00,
2013-03-07 23:11:00,43.8,41.3,29.83,South,171,0.0,0.0,91,0.00,,---,0.27,VWS V14.01,2013-03-08 07:11:00,
2013-03-07 23:16:00,43.6,41.2,29.81,South,171,0.0,0.0,91,0.00,,---,0.27,VWS V14.01,2013-03-08 07:16:00,
2013-03-07 23:21:00,43.5,41.0,29.81,South,171,0.0,0.0,91,0.00,,---,0.27,VWS V14.01,2013-03-08 07:21:00,
2013-03-07 23:26:00,43.3,40.8,29.81,South,171,0.0,0.0,91,0.00,,---,0.27,VWS V14.01,2013-03-08 07:26:00,
2013-03-07 23:31:00,43.2,40.8,29.81,South,171,0.0,0.0,91,0.00,,---,0.27,VWS V14.01,2013-03-08 07:31:00,
2013-03-07 23:36:00,43.1,40.7,29.81,South,171,0.0,0.0,91,0.00,,---,0.27,VWS V14.01,2013-03-08 07:36:00,
2013-03-07 23:41:00,42.9,40.5,29.81,South,171,0.0,0.0,91,0.00,,---,0.27,VWS V14.01,2013-03-08 07:41:00,
2013-03-07 23:46:00,42.9,40.5,29.81,South,171,0.0,0.0,91,0.00,,---,0.27,VWS V14.01,2013-03-08 07:46:00,
2013-03-07 23:51:00,42.8,40.4,29.81,South,171,0.0,0.0,91,0.00,,---,0.27,VWS V14.01,2013-03-08 07:51:00,
2013-03-07 23:56:00,42.8,40.4,29.81,South,171,0.0,0.0,91,0.00,,---,0.27,VWS V14.01,2013-03-08 07:56:00,